User: anonymous   Login
Location: Caltech
(34.1382°N, 118.1253°W)
Time: 22:47:24
(UTC-07:00)
Language:

Cosmos 1975 - Orbit

View from above orbital plane
View from above orbital plane
View from above satellite
View from above satellite

Ground track
Ground track

The orbit data is extracted from the following two-line orbital elements,

1 19573U 88093A   15142.06338696  .00002209  00000-0  16357-3 0  9995
2 19573 082.5206 357.2811 0014944 001.2052 358.9207 15.02598975446042
Epoch (UTC): 22 May 2015 01:31:16
Eccentricity: 0.0014944
inclination: 82.5206°
perigee height: 548 km
apogee height: 569 km
right ascension of ascending node: 357.2811°
argument of perigee: 1.2052°
revolutions per day: 15.02598975
mean anomaly at epoch: 358.9207°
orbit number at epoch: 44604

The dashed part of the orbit path shows where the satellite is in the earth's shadow,  

DLR